Flag for U.S.A. Weather past 2 weeks in Racine, Wisconsin, U.S.A.

Now
58 °F

Clear.


Feels Like: 58 °F
Forecast: 56 / 71 °F
Wind: 3 mph from Southwest

Location: Batten International Airport

Current Time: Jul 10, 2014 at 1:13:33 AM

Latest Report: Jul 10, 2014 at 12:53 AM


Visibility: 10 mi

Pressure: 30.09 "Hg

Humidity: 90%

Dew point: 55 °F

Location of RacineLocation

Historic Weather in Racine — Graph

°F

Racine temperature yesterday

Maximum temperature yesterday: 75 °F (at 2:53 PM)
Minimum temperature yesterday: 59 °F (at 10:53 PM)
Average temperature yesterday: 66 °F

Past Weeks' High & Low Weather Summary

 TemperatureHumidityPressure
High87 °F (Jun 30, 2:53 PM)100% (Jun 26, 12:53 AM)30.34 "Hg (Jun 26, 12:53 AM)
Low53 °F (Jun 27, 12:53 AM)40% (Jul 7, 2:53 PM)29.57 "Hg (Jul 1, 12:04 AM)
Average68 °F77%29.93 "Hg
* Reported Jun 24 11:03 PM — Jul 9 11:53 PM, Racine, Weather by CustomWeather, © 2014

Note: Actual official high and low records may vary slightly from our data, if they occured in-between our weather recording intervals... More about our weather records

Advertising

Racine weather history for previous 24 hours

 ConditionsComfort  
Time TempWeatherWind HumidityBarometerVisibility
11:53 PM
Jul 9
60 °FClear.No wind86%30.07 "Hg10 mi
10:53 PM59 °FClear.3 mph90%30.06 "Hg10 mi
9:53 PM61 °FClear.3 mph81%30.06 "Hg10 mi
8:53 PM63 °FSunny.6 mph75%30.04 "Hg10 mi
7:53 PM65 °FSunny.5 mph70%30.02 "Hg10 mi
6:53 PM67 °FSunny.6 mph68%30.01 "Hg10 mi
5:53 PM67 °FSunny.7 mph73%30.01 "Hg10 mi
4:53 PM67 °FSunny.8 mph73%30.00 "Hg10 mi
3:53 PM67 °FScattered clouds.9 mph79%29.99 "Hg10 mi
2:53 PM75 °FPartly sunny.13 mph45%29.96 "Hg10 mi
1:53 PM74 °FScattered clouds.8 mph48%29.95 "Hg10 mi
12:53 PM73 °FBroken clouds.10 mph53%29.95 "Hg10 mi
11:53 AM72 °FScattered clouds.9 mph57%29.95 "Hg10 mi
10:53 AM71 °FBroken clouds.9 mph61%29.94 "Hg10 mi
9:53 AM68 °FBroken clouds.9 mph70%29.93 "Hg10 mi
8:53 AM65 °FOvercast.7 mph78%29.93 "Hg10 mi
7:53 AM62 °FSunny.5 mph83%29.91 "Hg10 mi
2:53 AM60 °FClear.10 mph83%29.86 "Hg10 mi
1:53 AM63 °FClear.3 mph75%29.84 "Hg10 mi
Weather by CustomWeather, © 2014

See weather overviewHow to use our weather pages